{"data":{"norad_id":69208,"epoch":"2026-09-20T04:46:44.115744Z","epoch_age_seconds":52962,"freshness":"FRESH","line1":"1 69208U 26114AC  26263.19912171  .00017159  00000+0  51840-3 0  9992","line2":"2 69208  53.1587 114.8607 0001332  85.3703 274.7452 15.34364618 19415","mean_motion":15.34364618,"eccentricity":0.0001332,"inclination_deg":53.1587,"raan_deg":114.8607,"arg_perigee_deg":85.3703,"mean_anomaly_deg":274.7452,"bstar":0.0005184,"rev_number":1941,"period_min":93.849922183229,"perigee_km":461.89719106043,"apogee_km":463.71961891632,"semimajor_km":6840.9454049884,"source":"CELESTRAK","updated_at":"2026-09-20T09:00:44.101056Z"}}